Starlink 31053

operational
NORAD ID: 58549 Int'l Des: 2023-192 Owner: SPXS Country: US Constellation: starlink
LEOCIRCULAR

About Starlink 31053

Description loading...

Live Position

Loading 3D Globe...

Upcoming Passes

Altitude History

Altitude vs Time

uPlot chart will show altitude changes over time

Two-Line Element Set

1 58549U 23192U 25258.00714031 .00000132 00000-0 16585-4 0 9991
2 58549 53.1594 159.0451 0001355 76.9814 283.1338 15.30194522 99080
Epoch: Sep 15, 2025 • Age: 32 hours

Current Status

Altitude 477.3 km
Velocity 7.63 km/s
Sub-Earth Point 35.41°N, 176.22°W
Launch Date Dec 8, 2023
Age 1.7 years
Type internet

Technical Details

Classification Payload
Mass 730.00 kg
Dry Mass 700.00 kg
Total Mass 730.00 kg
Length 0.30 m
Diameter 4.10 m
Span 29.00 m
Shape Box + pan
Manufacturer SPXS
Bus Type Starlink V2M
Phase Status In Orbit
Owner/State SPXS/US

Large Constellations

Loading constellations...